| time (UTC) | temp C | wind direction | speed KPH | gust KPH | rain 1hr cm | rain 24hr cm | rain mn cm | humidity % | barometer mb |
| 20260507070015 | 10 | 53 | 0.0 | 3.2 | 0.03 | 1.45 | 0.76 | 96 | 1010.5 |
| 20260507064513 | 10 | 46 | 0.0 | 1.6 | 0.03 | 1.45 | 0.76 | 96 | 1010.3 |
| 20260507063012 | 10 | 328 | 0.0 | 1.6 | 0.05 | 1.45 | 0.76 | 96 | 1010.5 |
| 20260507061512 | 10 | 337 | 0.0 | 1.6 | 0.05 | 1.42 | 0.71 | 95 | 1010.5 |
| 20260507060014 | 10 | 27 | 0.0 | 0.0 | 0.15 | 1.42 | 0.71 | 95 | 1010.4 |
| 20260507054512 | 10 | 27 | 0.0 | 1.6 | 0.43 | 1.42 | 0.71 | 95 | 1010.2 |
| 20260507053010 | 10 | 27 | 0.0 | 3.2 | 0.48 | 1.42 | 0.71 | 94 | 1010.2 |
| 20260507051508 | 10 | 17 | 1.6 | 6.4 | 0.51 | 1.40 | 0.69 | 94 | 1010.4 |
| 20260507050012 | 10 | 42 | 6.4 | 11.3 | 0.51 | 1.27 | 0.56 | 93 | 1010.5 |
| 20260507044504 | 11 | 30 | 0.0 | 4.8 | 0.36 | 0.99 | 0.28 | 93 | 1010.4 |
| 20260507043006 | 11 | 56 | 0.0 | 3.2 | 0.33 | 0.94 | 0.23 | 93 | 1010.1 |
| 20260507041604 | 11 | 343 | 1.6 | 6.4 | 0.28 | 0.89 | 0.18 | 92 | 1009.8 |
| 20260507040055 | 12 | 56 | 0.0 | 4.8 | 0.15 | 0.76 | 0.05 | 90 | 1009.8 |
| 20260507034554 | 12 | 46 | 1.6 | 6.4 | 0.03 | 0.64 | 0.64 | 86 | 1009.6 |
| 20260507033049 | 12 | 49 | 0.0 | 6.4 | 0.00 | 0.61 | 0.61 | 84 | 1009.6 |
| 20260507031548 | 13 | 11 | 1.6 | 12.9 | 0.00 | 0.61 | 0.61 | 85 | 1009.4 |
| 20260507030045 | 13 | 4 | 3.2 | 6.4 | 0.00 | 0.61 | 0.61 | 84 | 1009.0 |
| 20260507024550 | 13 | 355 | 3.2 | 12.9 | 0.00 | 0.61 | 0.61 | 84 | 1009.3 |
| 20260507023052 | 13 | 8 | 1.6 | 6.4 | 0.00 | 0.61 | 0.61 | 83 | 1009.0 |
| 20260507021541 | 13 | 352 | 3.2 | 12.9 | 0.00 | 0.61 | 0.61 | 83 | 1009.1 |
| 20260507020049 | 13 | 300 | 8.0 | 14.5 | 0.00 | 0.61 | 0.61 | 84 | 1009.3 |
| 20260507014537 | 14 | 33 | 3.2 | 9.7 | 0.00 | 0.61 | 0.61 | 86 | 1009.3 |
| 20260507013035 | 14 | 295 | 3.2 | 8.0 | 0.00 | 0.61 | 0.61 | 86 | 1009.3 |
| 20260507011542 | 15 | 278 | 6.4 | 11.3 | 0.00 | 0.61 | 0.61 | 86 | 1009.3 |
| 20260507010035 | 15 | 285 | 3.2 | 8.0 | 0.00 | 0.61 | 0.61 | 90 | 1009.1 |
| 20260507004531 | 16 | 330 | 1.6 | 11.3 | 0.00 | 0.61 | 0.61 | 89 | 1008.8 |
| 20260507003028 | 16 | 340 | 1.6 | 11.3 | 0.00 | 0.61 | 0.61 | 90 | 1008.7 |
| 20260507001600 | 16 | 357 | 4.8 | 16.1 | 0.00 | 0.61 | 0.61 | 91 | 1008.4 |
| 20260507000027 | 16 | 274 | 1.6 | 6.4 | 0.00 | 0.61 | 0.61 | 93 | 1007.7 |
| 20260506234526 | 17 | 275 | 0.0 | 3.2 | 0.00 | 0.61 | 0.61 | 92 | 1007.5 |
| 20260506233026 | 17 | 266 | 0.0 | 3.2 | 0.00 | 0.61 | 0.61 | 91 | 1007.2 |
| 20260506231525 | 17 | 306 | 3.2 | 9.7 | 0.00 | 0.61 | 0.61 | 90 | 1007.4 |
| 20260506230035 | 17 | 268 | 1.6 | 12.9 | 0.00 | 0.61 | 0.61 | 89 | 1007.2 |
| 20260506224524 | 17 | 251 | 6.4 | 14.5 | 0.00 | 0.61 | 0.61 | 88 | 1007.0 |
| 20260506223029 | 18 | 276 | 3.2 | 14.5 | 0.00 | 0.61 | 0.61 | 87 | 1007.0 |
| 20260506221521 | 18 | 231 | 3.2 | 9.7 | 0.00 | 0.61 | 0.61 | 86 | 1006.9 |
| 20260506220021 | 18 | 261 | 8.0 | 16.1 | 0.00 | 0.61 | 0.61 | 86 | 1006.9 |
| 20260506214520 | 18 | 274 | 4.8 | 11.3 | 0.00 | 0.61 | 0.61 | 87 | 1006.5 |
| 20260506213020 | 18 | 294 | 3.2 | 9.7 | 0.00 | 0.61 | 0.61 | 87 | 1006.4 |
| 20260506211522 | 18 | 278 | 1.6 | 11.3 | 0.00 | 0.61 | 0.61 | 87 | 1006.5 |
| 20260506210040 | 18 | 274 | 4.8 | 14.5 | 0.00 | 0.61 | 0.61 | 87 | 1006.2 |
| 20260506204518 | 18 | 278 | 4.8 | 16.1 | 0.00 | 0.61 | 0.61 | 88 | 1006.0 |
| 20260506203018 | 17 | 269 | 3.2 | 16.1 | 0.00 | 0.61 | 0.61 | 88 | 1006.1 |
| 20260506201520 | 17 | 245 | 3.2 | 9.7 | 0.00 | 0.61 | 0.61 | 90 | 1006.3 |
| 20260506200014 | 17 | 285 | 4.8 | 11.3 | 0.00 | 0.61 | 0.61 | 90 | 1006.2 |
| 20260506194516 | 17 | 265 | 3.2 | 12.9 | 0.00 | 0.61 | 0.61 | 90 | 1006.4 |
| 20260506193022 | 17 | 272 | 8.0 | 22.5 | 0.00 | 0.61 | 0.61 | 89 | 1006.4 |
| 20260506191512 | 17 | 295 | 3.2 | 19.3 | 0.00 | 0.61 | 0.61 | 89 | 1006.4 |
| 20260506190013 | 17 | 263 | 6.4 | 20.9 | 0.00 | 0.61 | 0.61 | 89 | 1006.4 |
| 20260506184512 | 17 | 238 | 6.4 | 16.1 | 0.00 | 0.61 | 0.61 | 88 | 1006.6 |
| 20260506183009 | 17 | 271 | 6.4 | 16.1 | 0.00 | 0.61 | 0.61 | 89 | 1006.6 |
| 20260506181511 | 16 | 273 | 6.4 | 17.7 | 0.00 | 0.61 | 0.61 | 92 | 1006.7 |
| 20260506180010 | 16 | 277 | 4.8 | 12.9 | 0.00 | 0.61 | 0.61 | 94 | 1006.9 |
| 20260506174508 | 15 | 210 | 0.0 | 9.7 | 0.00 | 0.61 | 0.61 | 94 | 1006.9 |
| 20260506173007 | 15 | 269 | 4.8 | 11.3 | 0.00 | 0.61 | 0.61 | 94 | 1006.9 |
| 20260506171505 | 15 | 252 | 8.0 | 16.1 | 0.00 | 0.61 | 0.61 | 94 | 1007.0 |
| 20260506170004 | 15 | 278 | 8.0 | 19.3 | 0.00 | 0.61 | 0.61 | 94 | 1007.0 |
| 20260506164509 | 15 | 284 | 3.2 | 14.5 | 0.03 | 0.61 | 0.61 | 95 | 1006.9 |
| 20260506163006 | 15 | 274 | 6.4 | 11.3 | 0.03 | 0.61 | 0.61 | 95 | 1006.7 |
| 20260506161600 | 15 | 262 | 6.4 | 17.7 | 0.05 | 0.61 | 0.61 | 95 | 1007.0 |
| 20260506160118 | 15 | 276 | 6.4 | 17.7 | 0.15 | 0.61 | 0.61 | 96 | 1007.1 |
| 20260506154557 | 15 | 287 | 1.6 | 11.3 | 0.20 | 0.58 | 0.58 | 97 | 1006.9 |
| 20260506153055 | 15 | 290 | 6.4 | 11.3 | 0.25 | 0.58 | 0.58 | 96 | 1006.6 |
| 20260506151555 | 15 | 268 | 1.6 | 12.9 | 0.25 | 0.56 | 0.56 | 96 | 1006.9 |
| 20260506144550 | 15 | 252 | 6.4 | 22.5 | 0.18 | 0.38 | 0.38 | 95 | 1007.8 |
| 20260506143049 | 15 | 248 | 6.4 | 22.5 | 0.18 | 0.33 | 0.33 | 94 | 1007.8 |
| 20260506141547 | 15 | 272 | 8.0 | 17.7 | 0.20 | 0.30 | 0.30 | 94 | 1007.6 |
| 20260506140045 | 15 | 261 | 8.0 | 14.5 | 0.20 | 0.28 | 0.28 | 93 | 1007.3 |
| 20260506134543 | 15 | 274 | 4.8 | 12.9 | 0.13 | 0.20 | 0.20 | 92 | 1007.3 |
| 20260506133052 | 15 | 270 | 3.2 | 9.7 | 0.13 | 0.15 | 0.15 | 91 | 1007.4 |
| 20260506131538 | 15 | 233 | 3.2 | 14.5 | 0.08 | 0.10 | 0.10 | 89 | 1007.5 |
| 20260506130037 | 16 | 259 | 4.8 | 11.3 | 0.08 | 0.08 | 0.08 | 88 | 1007.4 |
| 20260506124535 | 16 | 259 | 4.8 | 12.9 | 0.05 | 0.05 | 0.05 | 86 | 1007.6 |
| 20260506123034 | 16 | 278 | 3.2 | 16.1 | 0.03 | 0.03 | 0.03 | 84 | 1007.8 |
| 20260506121531 | 16 | 242 | 6.4 | 16.1 | 0.03 | 0.03 | 0.03 | 83 | 1007.9 |
| 20260506120048 | 16 | 285 | 6.4 | 20.9 | 0.00 | 0.00 | 0.00 | 82 | 1007.9 |
| 20260506114526 | 16 | 255 | 8.0 | 16.1 | 0.00 | 0.00 | 0.00 | 80 | 1007.7 |
| 20260506113023 | 17 | 278 | 9.7 | 22.5 | 0.00 | 0.00 | 0.00 | 77 | 1007.3 |
| 20260506111520 | 17 | 279 | 4.8 | 11.3 | 0.00 | 0.00 | 0.00 | 76 | 1007.3 |
| 20260506110019 | 17 | 287 | 8.0 | 25.7 | 0.00 | 0.00 | 0.00 | 75 | 1007.2 |
| 20260506104527 | 17 | 255 | 3.2 | 12.9 | 0.00 | 0.00 | 0.00 | 74 | 1006.9 |
| 20260506103034 | 17 | 230 | 6.4 | 16.1 | 0.00 | 0.00 | 0.00 | 72 | 1006.9 |
| 20260506101513 | 17 | 276 | 3.2 | 9.7 | 0.00 | 0.00 | 0.00 | 71 | 1006.8 |
| 20260506100011 | 18 | 269 | 4.8 | 16.1 | 0.00 | 0.00 | 0.00 | 70 | 1006.8 |
| 20260506094512 | 18 | 293 | 1.6 | 12.9 | 0.00 | 0.00 | 0.00 | 69 | 1006.7 |
| 20260506093017 | 18 | 249 | 6.4 | 11.3 | 0.00 | 0.00 | 0.00 | 68 | 1006.6 |
| 20260506091506 | 18 | 275 | 4.8 | 14.5 | 0.00 | 0.00 | 0.00 | 67 | 1006.8 |
| 20260506090004 | 18 | 278 | 3.2 | 16.1 | 0.00 | 0.00 | 0.00 | 67 | 1007.0 |
| 20260506084503 | 18 | 275 | 3.2 | 12.9 | 0.00 | 0.00 | 0.00 | 66 | 1007.0 |
| 20260506083101 | 19 | 288 | 6.4 | 20.9 | 0.00 | 0.00 | 0.00 | 65 | 1007.0 |
| 20260506081601 | 19 | 229 | 6.4 | 14.5 | 0.00 | 0.00 | 0.00 | 65 | 1007.1 |
| 20260506073052 | 20 | 251 | 8.0 | 19.3 | 0.00 | 0.00 | 0.00 | 61 | 1007.2 |
| 20260506071550 | 20 | 256 | 4.8 | 17.7 | 0.00 | 0.00 | 0.00 | 61 | 1007.3 |